Location: 相模原市立博物館
(35.5593°N, 139.3931°E)
Time: 13:17:42
(UTC+09:00)

SRMSAT - Visible Passes

Search period start: 25 January 2022 00:00
Search period end: 04 February 2022 00:00
Orbit: 848 x 865 km, 20.0° (Epoch: 24 January)

Date Brightness Start Highest point End Pass type
(mag) Time Alt. Az. Time Alt. Az. Time Alt. Az.
31 Jan ? 18:28:38 10° S 18:29:35 10° SSE 18:30:32 10° SSE visible
31 Jan ? 20:14:20 10° SSW 20:14:39 11° SSW 20:14:39 11° SSW visible
01 Feb ? 18:14:35 10° S 18:16:25 11° SSE 18:18:15 10° SSE visible
01 Feb ? 20:01:06 10° SW 20:02:29 14° SSW 20:02:29 14° SSW visible
02 Feb ? 18:00:55 10° S 18:03:15 12° SSE 18:05:36 10° SE visible
02 Feb ? 19:47:53 10° SW 19:50:19 16° SSW 19:50:19 16° SSW visible
03 Feb ? 17:47:23 10° SSW 17:50:05 13° S 17:52:47 10° SE visible
03 Feb ? 19:34:42 10° SW 19:38:09 17° S 19:38:09 17° S visible
